• En España
  • Lista de países
  • Para 7 días
  • Temperatura del agua
  • Mapa Satelital
  • El tiempo en el mapa
  • Informadores
  • user-avatar
    Iniciar sesión

    Tiempo cada hora Bikchuraevo

    Hoy, 16 Octubre, Martes

    Tiempo Temperatura Precipitaciones Viento Presión Humedad
    00:00 +5°C° 0 mm 2 mps 755 mmHg 95%
    01:00 +6°C° 0 mm 2 mps 755 mmHg 96%
    02:00 +7°C° 0 mm 2 mps 755 mmHg 97%
    03:00 +7°C° 0 mm 2 mps 754 mmHg 98%
    04:00 +7°C° 0 mm 3 mps 754 mmHg 98%
    05:00 +7°C° 0 mm 3 mps 754 mmHg 97%
    06:00 +7°C° 0 mm 3 mps 754 mmHg 97%
    07:00 +7°C° 0 mm 3 mps 754 mmHg 94%
    08:00 +8°C° 0 mm 3 mps 754 mmHg 91%
    09:00 +9°C° 0 mm 3 mps 754 mmHg 88%
    10:00 +10°C° 0 mm 3 mps 754 mmHg 83%
    11:00 +11°C° 0 mm 3 mps 754 mmHg 79%
    12:00 +12°C° 0 mm 3 mps 754 mmHg 75%
    13:00 +12°C° 0 mm 3 mps 754 mmHg 75%
    14:00 +12°C° 0 mm 3 mps 754 mmHg 74%
    15:00 +13°C° 0 mm 3 mps 754 mmHg 74%
    16:00 +11°C° 0 mm 3 mps 754 mmHg 79%
    17:00 +10°C° 0 mm 3 mps 754 mmHg 84%
    18:00 +9°C° 0 mm 3 mps 754 mmHg 89%
    19:00 +9°C° 0 mm 3 mps 754 mmHg 89%
    20:00 +8°C° 0 mm 3 mps 753 mmHg 90%
    21:00 +8°C° 0 mm 3 mps 753 mmHg 91%
    22:00 +8°C° 0 mm 3 mps 753 mmHg 91%
    23:00 +8°C° 0 mm 3 mps 752 mmHg 91%

    Mañana, 17 Octubre, Miércoles

    Tiempo Temperatura Precipitaciones Viento Presión Humedad
    00:00 +7°C° 0 mm 4 mps 752 mmHg 91%
    01:00 +6°C° 0 mm 4 mps 752 mmHg 90%
    02:00 +6°C° 0 mm 4 mps 751 mmHg 89%
    03:00 +6°C° 0 mm 4 mps 751 mmHg 88%
    04:00 +6°C° 0 mm 5 mps 751 mmHg 89%
    05:00 +5°C° 0 mm 5 mps 750 mmHg 90%
    06:00 +5°C° 0 mm 5 mps 750 mmHg 90%
    07:00 +6°C° 0 mm 5 mps 750 mmHg 88%
    08:00 +7°C° 0 mm 6 mps 750 mmHg 85%
    09:00 +7°C° 0 mm 6 mps 750 mmHg 83%
    10:00 +8°C° 0 mm 6 mps 750 mmHg 82%
    11:00 +8°C° 0 mm 6 mps 751 mmHg 82%
    12:00 +8°C° 0 mm 6 mps 751 mmHg 81%
    13:00 +8°C° 0 mm 6 mps 752 mmHg 77%
    14:00 +8°C° 0 mm 6 mps 752 mmHg 73%
    15:00 +8°C° 0 mm 6 mps 753 mmHg 69%
    16:00 +7°C° 0 mm 5 mps 754 mmHg 71%
    17:00 +6°C° 0 mm 5 mps 754 mmHg 73%
    18:00 +5°C° 0 mm 4 mps 755 mmHg 75%
    19:00 +4°C° 0 mm 3 mps 756 mmHg 78%
    20:00 +4°C° 0 mm 3 mps 756 mmHg 80%
    21:00 +3°C° 0 mm 3 mps 757 mmHg 83%
    22:00 +3°C° 0 mm 3 mps 757 mmHg 84%
    23:00 +2°C° 0 mm 3 mps 757 mmHg 86%

    Pasado mañana, 18 Octubre, Jueves

    Tiempo Temperatura Precipitaciones Viento Presión Humedad
    00:00 +2°C° 0 mm 3 mps 757 mmHg 88%
    01:00 +2°C° 0 mm 3 mps 757 mmHg 89%
    02:00 +2°C° 0 mm 3 mps 758 mmHg 90%
    03:00 +1°C° 0 mm 3 mps 758 mmHg 90%
    04:00 +1°C° 0 mm 3 mps 758 mmHg 90%
    05:00 +1°C° 0 mm 3 mps 758 mmHg 91%
    06:00 +1°C° 0 mm 3 mps 758 mmHg 91%
    07:00 +2°C° 0 mm 3 mps 758 mmHg 86%
    08:00 +3°C° 0 mm 4 mps 758 mmHg 81%
    09:00 +4°C° 0 mm 4 mps 758 mmHg 76%
    10:00 +5°C° 0 mm 4 mps 758 mmHg 71%
    11:00 +6°C° 0 mm 4 mps 758 mmHg 67%
    12:00 +8°C° 0 mm 4 mps 757 mmHg 62%
    13:00 +8°C° 0 mm 4 mps 757 mmHg 62%
    14:00 +9°C° 0 mm 3 mps 757 mmHg 62%
    15:00 +9°C° 0 mm 3 mps 757 mmHg 63%
    16:00 +8°C° 0 mm 3 mps 756 mmHg 67%
    17:00 +5°C° 0 mm 3 mps 756 mmHg 72%
    18:00 +4°C° 0 mm 3 mps 756 mmHg 77%
    19:00 +4°C° 0 mm 3 mps 756 mmHg 78%
    20:00 +4°C° 0 mm 3 mps 755 mmHg 80%
    21:00 +4°C° 0 mm 3 mps 755 mmHg 82%
    22:00 +4°C° 0 mm 3 mps 755 mmHg 84%
    23:00 +4°C° 0 mm 3 mps 754 mmHg 86%

    19 Octubre, Viernes

    Tiempo Temperatura Precipitaciones Viento Presión Humedad
    00:00 +4°C° 0 mm 3 mps 754 mmHg 89%
    01:00 +4°C° 0 mm 3 mps 754 mmHg 91%
    02:00 +4°C° 0 mm 3 mps 754 mmHg 93%
    03:00 +4°C° 0 mm 3 mps 754 mmHg 95%
    04:00 +4°C° 0 mm 4 mps 753 mmHg 96%
    05:00 +4°C° 0 mm 4 mps 753 mmHg 96%
    06:00 +4°C° 0 mm 4 mps 753 mmHg 96%
    07:00 +5°C° 0 mm 4 mps 752 mmHg 94%
    08:00 +6°C° 0 mm 4 mps 752 mmHg 92%
    09:00 +7°C° 0 mm 5 mps 752 mmHg 90%
    10:00 +8°C° 0 mm 5 mps 752 mmHg 86%
    11:00 +9°C° 0 mm 5 mps 751 mmHg 81%
    12:00 +10°C° 0 mm 5 mps 751 mmHg 76%
    13:00 +12°C° 0 mm 5 mps 751 mmHg 76%
    14:00 +12°C° 0 mm 5 mps 751 mmHg 76%
    15:00 +12°C° 0 mm 5 mps 750 mmHg 76%
    16:00 +12°C° 0 mm 5 mps 750 mmHg 80%
    17:00 +10°C° 0 mm 5 mps 750 mmHg 83%
    18:00 +9°C° 0 mm 5 mps 750 mmHg 87%
    19:00 +9°C° 0 mm 5 mps 750 mmHg 87%
    20:00 +10°C° 0 mm 4 mps 750 mmHg 87%
    21:00 +11°C° 0 mm 4 mps 750 mmHg 87%
    22:00 +10°C° 0 mm 4 mps 750 mmHg 89%
    23:00 +10°C° 0 mm 4 mps 750 mmHg 91%

    20 Octubre, Sábado

    Tiempo Temperatura Precipitaciones Viento Presión Humedad
    00:00 +8°C° 0 mm 4 mps 750 mmHg 93%
    01:00 +8°C° 0.1 mm 4 mps 750 mmHg 93%
    02:00 +8°C° 0.1 mm 4 mps 750 mmHg 93%
    03:00 +8°C° 0.1 mm 4 mps 750 mmHg 94%
    04:00 +8°C° 0.1 mm 4 mps 749 mmHg 94%
    05:00 +10°C° 0.1 mm 4 mps 749 mmHg 94%
    06:00 +10°C° 0.1 mm 4 mps 749 mmHg 94%
    07:00 +10°C° 0.1 mm 4 mps 749 mmHg 92%
    08:00 +10°C° 0.1 mm 4 mps 750 mmHg 90%
    09:00 +10°C° 0.1 mm 3 mps 750 mmHg 89%
    10:00 +11°C° 0 mm 4 mps 750 mmHg 83%
    11:00 +11°C° 0 mm 4 mps 750 mmHg 76%
    12:00 +12°C° 0 mm 4 mps 750 mmHg 70%
    13:00 +11°C° 0 mm 4 mps 750 mmHg 69%
    14:00 +11°C° 0 mm 3 mps 750 mmHg 68%
    15:00 +11°C° 0 mm 3 mps 750 mmHg 66%
    16:00 +10°C° 0 mm 3 mps 750 mmHg 70%
    17:00 +9°C° 0 mm 3 mps 751 mmHg 73%
    18:00 +8°C° 0 mm 3 mps 751 mmHg 77%
    19:00 +7°C° 0 mm 3 mps 751 mmHg 79%
    20:00 +5°C° 0 mm 3 mps 752 mmHg 80%
    21:00 +5°C° 0 mm 3 mps 752 mmHg 82%
    22:00 +5°C° 0 mm 2 mps 752 mmHg 85%
    23:00 +5°C° 0 mm 2 mps 752 mmHg 87%

    21 Octubre, Domingo

    Tiempo Temperatura Precipitaciones Viento Presión Humedad
    00:00 +4°C° 0 mm 2 mps 753 mmHg 89%
    01:00 +4°C° 0 mm 2 mps 753 mmHg 89%
    02:00 +3°C° 0 mm 2 mps 753 mmHg 88%
    03:00 +3°C° 0 mm 2 mps 753 mmHg 88%
    04:00 +4°C° 0 mm 1 mps 753 mmHg 88%
    05:00 +3°C° 0 mm 1 mps 754 mmHg 89%
    06:00 +3°C° 0 mm 1 mps 754 mmHg 89%
    07:00 +4°C° 0 mm 1 mps 754 mmHg 85%
    08:00 +5°C° 0 mm 1 mps 754 mmHg 80%
    09:00 +6°C° 0 mm 1 mps 755 mmHg 76%
    10:00 +7°C° 0 mm 1 mps 755 mmHg 71%
    11:00 +8°C° 0 mm 1 mps 755 mmHg 66%
    12:00 +9°C° 0 mm 1 mps 755 mmHg 61%
    13:00 +8°C° 0 mm 0 mps 755 mmHg 62%
    14:00 +8°C° 0 mm 0 mps 754 mmHg 62%
    15:00 +8°C° 0 mm 0 mps 754 mmHg 62%
    16:00 +7°C° 0 mm 0 mps 754 mmHg 66%
    17:00 +7°C° 0 mm 1 mps 755 mmHg 70%
    18:00 +6°C° 0 mm 1 mps 755 mmHg 73%
    19:00 +5°C° 0 mm 1 mps 755 mmHg 75%
    20:00 +5°C° 0 mm 1 mps 755 mmHg 76%
    21:00 +5°C° 0 mm 1 mps 755 mmHg 77%
    22:00 +5°C° 0 mm 1 mps 755 mmHg 78%
    23:00 +4°C° 0 mm 2 mps 754 mmHg 79%
    Mostrar más